Weather Roundup
Issued by NWS Corpus Christi, TX

Home | Current Version | Previous Version | Text Only | Print | Product List | Glossary On
Versions: 1 2 3 4 5 6 7 8 9 10 11 12 13 14 15 16 17 18 19 20 21 22 23 24 25 26 27 28 29 30 31 32 33 34 35 36 37 38 39 40 41 42 43 44 45 46 47 48 49 50
000
ASUS44 KCRP 060010
HRRCRP

SOUTH TEXAS REGIONAL WEATHER ROUNDUP
NATIONAL WEATHER SERVICE CORPUS CHRISTI TX
700 PM CDT SUN JUL 05 2015


TXZ229>244-060100-
...CORPUS CHRISTI AREA OBSERVATIONS...

CITY           SKY/WX    TMP DP  RH WIND       PRES   REMARKS
CORPUS CHRISTI MOSUNNY   86  75  69 SE23G31   29.94F HX  95
NAS CORPUS CHR MOSUNNY   84  79  85 SE14G29   29.95F HX  96
ROCKPORT       LGT RAIN  86  76  71 SE17G25   29.95F HX  96
KINGSVILLE NAS MOSUNNY   87  79  76 SE25G35   29.93S HX 101
ALICE          PTSUNNY   88  77  69 SE23G29   29.91F HX 100
FALFURRIAS     MOSUNNY   90  74  58 SE10G20   29.91S HX  99
$$

...VICTORIA AREA OBSERVATIONS...

CITY           SKY/WX    TMP DP  RH WIND       PRES   REMARKS
VICTORIA       MOSUNNY   86  75  69 S18       29.96F HX  95
BEEVILLE       FAIR      84  77  80 SE17G23   29.93F HX  94
PLEASANTON     SUNNY     89  72  57 SE14G22   29.92S HX  95
SAN ANTONIO    MOSUNNY   88  71  57 SE16      29.94F HX  94
$$

...LAREDO AREA OBSERVATIONS...

CITY           SKY/WX    TMP DP  RH WIND       PRES   REMARKS
LAREDO         MOSUNNY   95  71  45 SE20      29.89R HX 102
COTULLA        LGT RAIN  92  71  50 SE16G28   29.89S HX  98
DEL RIO        SUNNY     91  67  44 SE18G25   29.89S HX  94
MCALLEN        MOSUNNY   91  74  57 SE23G31   29.92R HX 100
HEBBRONVILLE     N/A     89  71  54 SE16G25   29.92R HX  95
$$

...OTHER TEXAS OBSERVATIONS...

CITY           SKY/WX    TMP DP  RH WIND       PRES   REMARKS
BROWNSVILLE    PTSUNNY   86  77  74 SE22G28   29.95S HX  97
HOUSTON        MOSUNNY   89  73  59 S9        29.98S HX  97
COL. STATION   SUNNY     88  72  58 S12G20    29.96F HX  94
AUSTIN         MOSUNNY   87  72  60 S16G23    29.94F HX  93
WACO           MOSUNNY   90  70  51 S18       29.93F HX  95
FORT WORTH     MOSUNNY   91  67  44 S18G25    29.91F HX  94
WICHITA FALLS  SUNNY     91  67  44 S20       29.86F HX  94
LUBBOCK        PTSUNNY   91  63  39 S14       29.94S HX  92
EL PASO        MOSUNNY   90  58  33 W14       29.95F
$$

...MARINE OBSERVATIONS...

STATION/POSITION TIME  SKY/WX   TEMP    WIND        PRES    VSBY  WAVE   SWELL
                                AIR SEA DIR/SP/G                  HT/PER HT/PER
                 (UTC)          (F)     (DEG/KT/KT) (MB)    (MI)  (FT/S) (FT/S)
PORT ARANSAS     0000            82 84  140/ 13/ 14 1015.5F
BUOY 90 E PORT A NOT AVBL
BUOY 45 SE BAFFI 2350            83 83  150/ 17/ 21 1014.3F         4/ 7   2/ 7
BUOY 200 E PT IS 2350            85 84  150/ 14/ 16 1016.9F         3/ 6   2/ 9
BUOY 15 E GALVES 2350            85 85  180/ 12/ 14 1016.0R         3/ 6
$$


USA.gov is the U.S. government's official web portal to all federal, state and local government web resources and services.